Regional Weather Roundup
Issued by NWS

Home | Current Version | Previous Version | Graphics & Text | Print | Product List | Glossary On
Versions: 1 2 3 4 5 6 7 8 9 10 11 12 13 14 15 16 17 18 19 20 21 22 23 24 25 26 27
000
ASUS45 KBOU 221007
RWRCO

WEATHER ROUNDUP FOR COLORADO
NATIONAL WEATHER SERVICE DENVER/BOULDER CO
400 AM MDT WED OCT 22 2014

NOTE: "FAIR" INDICATES FEW OR NO CLOUDS BELOW 12000 FEET WITH NO
SIGNIFICANT WEATHER AND/OR OBSTRUCTIONS TO VISIBILITY.

COZ001>005-013-030-031-221100-
...NORTHWEST COLORADO...

CITY           SKY/WX    TMP DP  RH WIND       PRES   REMARKS
CRAIG          CLOUDY    42  38  85 SE6       30.12F
HAYDEN         CLOUDY    41  37  87 SE8       30.13S
MEEKER         CLOUDY    43  39  86 MISG      30.13S
MOUNT WERNER   NOT AVBL
STEAMBOAT SPGS CLOUDY    39  36  89 CALM      30.14F
WALDEN         MOCLDY    37  32  81 S9        30.15R
$$

COZ006>008-011-221100-
...WEST CENTRAL VALLEYS...

CITY           SKY/WX    TMP DP  RH WIND       PRES   REMARKS
GRAND JUNCTION CLEAR     47  42  83 CALM      30.06R
MONTROSE       MOCLDY    47  41  80 CALM      30.13R
EAGLE          CLOUDY    45  43  93 NE7       30.20F
RIFLE          LGT RAIN  47  44  90 NE5       30.13F
DELTA          MOCLDY    50  47  90 N9        30.09R
NUCLA          MOCLDY    43  37  81 CALM      30.14R
$$

COZ017>023-064>068-221100-
...SOUTHWEST COLORADO...

CITY           SKY/WX    TMP DP  RH WIND       PRES   REMARKS
DURANGO        CLEAR     40  39  97 N3        30.16S
CORTEZ         CLEAR     39  37  92 E5        30.11S
PAGOSA SPRINGS CLEAR     41  41  99 CALM      30.21S
TELLURIDE      CLOUDY    42  34  73 CALM      30.26S
WOLF CREEK PAS SNOW      32  32 100 SW16G26     N/A  VSB<1/4 WCI  21
$$

COZ009-010-012-014-032>034-037-058>063-221100-
...CENTRAL COLORADO...

CITY           SKY/WX    TMP DP  RH WIND       PRES   REMARKS
ASPEN          LGT RAIN  38  35  89 S7        30.23S
BUENA VISTA    PTCLDY    36  34  92 SW3       30.17R
COPPER MTN     SNOW      34  30  86 W18       30.32R VSB<1/4 WCI  23
BERTHOUD PASS  SNOW      27  23  86 MISG      30.28F VSB 1/4
COTTONWOOD PAS PTCLDY    45  30  57 CALM      30.22S
GUNNISON       MOCLDY    36  30  80 NE6       30.23R
KREMMLING      CLOUDY    41  36  81 S3          N/A
LEADVILLE      LGT SNOW  32  32 100 N8        30.26R FOG     WCI  25
MONARCH PASS   FOG       32  32 100 MISG      30.38S VSB<1/4
SALIDA         PTCLDY    42  39  87 NW3       30.22R
SUNLIGHT       LGT SNOW  34  34 100 W3        30.29S
WILKERSON PASS NOT AVBL
$$

COZ069>075-221100-
...SAN LUIS VALLEY/SANGRE DE CRISTO MOUNTAINS...

CITY           SKY/WX    TMP DP  RH WIND       PRES   REMARKS
ALAMOSA        PTCLDY    36  34  92 CALM      30.16S
LA VETA PASS   PTCLDY    37  34  87 S7        30.25S
SAGUACHE       CLEAR     36  32  87 NW6       30.19S
$$

COZ035-036-038>040-221100-
...NORTHERN COLORADO FRONT RANGE...

CITY           SKY/WX    TMP DP  RH WIND       PRES   REMARKS
DENVER INTL AP MOCLDY    49  43  80 N8        30.00R
DMNS CITY PARK   N/A     51  42  71 W6        30.03R
AURORA         PTCLDY    49  43  78 CALM      30.04R
FRONT RANGE AP NOT AVBL
ERIE MUNI ARPT PTCLDY    46  44  93 CALM      30.01R
BOULDER MUN AP PTCLDY    50  41  71 SW5       30.01S
CENTENNIAL     PTCLDY    50  42  74 W3        30.04R
BROOMFIELD     PTCLDY    48  41  76 W5        30.04R
FORT COLLINS   PTCLDY    48  39  71 SW6       30.01R
LONGMONT       PTCLDY    47  42  85 S5        30.02R
$$

COZ041-046-047-076>085-087-088-221100-
...PIKES PEAK/PALMER DIVIDE AND SOUTHERN FOOTHILLS...

CITY           SKY/WX    TMP DP  RH WIND       PRES   REMARKS
COLO. SPRINGS  MOCLDY    54  36  50 SE6       30.03R
A. F. ACADEMY  MOCLDY    54  35  49 W5        30.04R
ELLICOTT       MOCLDY    51  39  63 NE8       30.02R
FALCON         MOCLDY    49  37  61 N6        30.07R
FORT CARSON    MOCLDY    50  39  67 E7        30.01R
LIMON          MOCLDY    49  41  74 CALM      30.00S
MONUMENT HILL  MOCLDY    41  36  81 S5        30.07R
TRINIDAD       CLOUDY    55  43  63 SW16      30.01F
$$

COZ042>045-048>051-090-091-221100-
...NORTHEAST COLORADO...

CITY           SKY/WX    TMP DP  RH WIND       PRES   REMARKS
GREELEY ARPT   MOCLDY    50  39  66 CALM      29.99R
AKRON          CLOUDY    54  44  69 N12       29.97S
BURLINGTON     CLOUDY    56  47  71 SW10      29.97R
WRAY           CLOUDY    58  48  69 W6        29.94R
STERLING       CLOUDY    59  48  67 N3        29.93F
HOLYOKE        MOCLDY    54  46  76 N3        29.94S
FORT MORGAN    CLOUDY    55  45  69 N12       29.97S
$$

COZ086-089-092>099-221100-
...SOUTHEAST COLORADO...

CITY           SKY/WX    TMP DP  RH WIND       PRES   REMARKS
PUEBLO         MOCLDY    50  41  71 CALM      29.97R
LA JUNTA       MOCLDY    55  46  71 W12       29.93R
LAMAR          PTCLDY    57  49  74 S14       29.90F
SPRINGFIELD      N/A     55  50  83 S15       29.99F
$$



USA.gov is the U.S. government's official web portal to all federal, state and local government web resources and services.